Regional Weather Roundup
Issued by NWS Pendleton, OR

Home | Current Version | Previous Version | Text Only | Print | Product List | Glossary On
Versions: 1 2 3 4 5 6 7 8 9 10 11 12 13 14 15 16 17 18 19 20 21 22 23 24 25 26 27 28 29 30 31 32 33 34 35 36 37 38 39 40 41 42 43 44 45 46 47 48 49 50
085
ASUS46 KPDT 112210
RWRPDT
PENDLETON REGIONAL WEATHER ROUNDUP
NATIONAL WEATHER SERVICE PENDLETON OREGON
200 PM PST THU FEB 11 2016

NOTE: FAIR INDICATES FEW OR NO CLOUDS BELOW 12,000 FEET WITH NO
SIGNIFICANT WEATHER AND/OR OBSTRUCTIONS TO VISIBILITY.

# INDICATES UNOFFICIAL STATION AND DATA

WAZ520-112310-
EAST SLOPES OF WASHINGTON CASCADES

CITY            SKY/WX      TMP DP  RH  WIND    PRES   REMARKS
#CLE ELUM HS    N/A         40  36  85  CALM    30.18F
#CLE ELUM 2NW   N/A         39  36  89  NE1     N/A
#CLE ELUM LAKE  N/A         39  37  92  CALM    30.24F
#CLIFFDEL 2NW   N/A         43  39  86  CALM    N/A
#GLENWOOD       N/A         44  42  93  CALM    30.25F
#MANASTASH CYN  N/A         40  34  79  CALM    30.19S
#NELSON         N/A         N/A N/A N/A CALM    30.21F
#NELSON 3SW     N/A         38  36  92  CALM    30.47F
#NILE           N/A         41  39  93  NE3     29.54S
#PEOH POINT     N/A         39  35  85  E9      N/A
#RONALD 2NW     N/A         39  N/A N/A CALM    30.07F
#SOUTH BLEWITT  N/A         38  37  96  CALM    N/A
#TEANAWAY 4NE   N/A         40  37  89  E2      N/A
#TROUT LAKE 1NE N/A         44  42  93  CALM    30.24F
#TROUT LAKE 1E  N/A         41  40  96  CALM    30.18F
$$

WAZ521-112310-
SIMCOE HIGHLANDS

CITY            SKY/WX      TMP DP  RH  WIND    PRES   REMARKS
#BICKLETON HS   N/A         46  36  68  SE3     N/A
#SATUS PASS DOT N/A         44  40  86  CALM    N/A
#CENTERVILLE 1SWN/A         45  41  86  E1      30.21F
#GOLDENDALE     N/A         46  44  93  E1      N/A
#GOLDENDALE 1NE N/A         47  39  74  NW2     N/A
#GOODNOE HILLS  N/A         46  40  79  S3      30.13F
#LYLE 6NE       N/A         46  44  93  S1      30.22F
$$

WAZ026-112310-
KITTITAS VALLEY

CITY            SKY/WX      TMP DP  RH  WIND    PRES   REMARKS
ELLENSBURG AP   CLOUDY      38  33  82  SW3     30.26S HAZE
#ELLENSBURG CWU N/A         40  35  82  W2      30.27F
#ELLENSBURG 3NE N/A         37  34  89  CALM    30.24F
#ELLENSBURG     N/A         40  39  96  S1      N/A
#ELLENSBURG 1E  N/A         37  N/A N/A CALM    N/A
#KITTITAS 4N    N/A         40  34  79  CALM    30.28S
#KITTITAS 3S    N/A         35  33  92  CALM    30.33F
#THORP 6N       N/A         36  34  92  E7      30.31F
$$

WAZ027-112310-
YAKIMA VALLEY

CITY            SKY/WX      TMP DP  RH  WIND    PRES   REMARKS
SUNNYSIDE AP    CLOUDY      46  39  76  NW5     30.26S
YAKIMA AIRPORT  LGT RAIN    49  41  74  W3      30.26F
YAKIMA-VAGABOND LGT RAIN    48  39  71  N5      30.23S
#DONALD 2NE     N/A         48  36  63  N1      29.10S
#GRANDVIEW      N/A         49  40  71  W1      30.29F
#MABTON         N/A         49  43  80  W1      30.26S
#MOXEE 2E       N/A         44  36  73  CALM    30.18S
#NACHES 2SW     N/A         44  41  89  CALM    30.27S
#TERRACE HTS    N/A         47  43  86  CALM    30.26F
#TOPPENISH      N/A         48  40  74  CALM    30.20S
#WEST VALLEY    N/A         49  42  77  CALM    30.27F
#W YAKIMA       N/A         47  42  83  CALM    30.29F
#WHITE SWAN 5E  N/A         48  44  86  CALM    30.28F
#WILEY CITY 3W  N/A         45  40  82  CALM    30.22F
$$

WAZ028-112310-
LOWER COLUMBIA BASIN...WASHINGTON

CITY            SKY/WX      TMP DP  RH  WIND    PRES   REMARKS
PASCO           CLOUDY      53  39  59  N12     30.27S
PROSSER AWOS    N/A         50  41  71  W5      30.29S
RICHLAND AWOS   CLOUDY      52  40  63  NW8     30.28R
#BENTON CITY    N/A         50  40  68  SE7     30.18S
#CONNELL 5N     N/A         50  44  80  N7      30.26F
#ELTOPIA 6NW    N/A         47  41  79  N7      29.21F
#KAHLOTUS       N/A         51  43  74  E5      30.24F
#KENNEWICK 3S   N/A         51  42  71  CALM    30.29S
#PATERSON       N/A         51  42  71  CALM    30.25S
#PROSSER DOT    N/A         50  41  71  W5      N/A
#PROSSER        N/A         48  39  71  S3      30.28R
#SAGEMOOR 2W    N/A         49  41  74  N6      30.11F
#TOUCHET 2S     N/A         50  42  74  NW6     30.25F
#WEST PASCO     N/A         52  41  66  NW5     30.30S
$$

WAZ029-112310-
FOOTHILLS OF THE BLUES...WASHINGTON

CITY            SKY/WX      TMP DP  RH  WIND    PRES   REMARKS
WALLA WALLA AP  MOCLDY      47  40  76  S5      30.24F HAZE
#CLYDE 6NW      N/A         52  43  71  N2      30.24F
#DAYTON SCHOOL  N/A         46  37  71  S2      30.22F
#DELANEY DOT    N/A         54  40  59  CALM    N/A
#LOWDEN 2SE     N/A         51  43  74  SW3     30.22S
#PLEASANT VIEW 1N/A         51  42  71  CALM    30.28F
#PRESCOTT       N/A         49  44  83  W1      30.25F
#WHITMAN COLLEGEN/A         47  42  83  CALM    30.31F
#WAITSBURG 5S   N/A         46  42  86  W2      30.34F
#WAITSBURG 8N   N/A         47  26  44  S3      30.03F
#WALLA WALLA 5E N/A         49  43  80  S5      N/A
#WALLA WALLA U  N/A         49  43  80  CALM    30.26F
#WHITMAN MISSIONN/A         51  44  77  W2      30.27F
$$

WAZ030-112310-
BLUE MOUNTAINS...WASHINGTON

CITY            SKY/WX      TMP DP  RH  WIND    PRES   REMARKS
#DIXIE 5SE      N/A         45  40  82  W5      30.13F
#SKI BLUEWOOD   N/A         47  33  58  S5      30.20F
$$

ORZ009-041-WAZ024-112310-
COLUMBIA RIVER GORGE

CITY            SKY/WX      TMP DP  RH  WIND    PRES   REMARKS
HOOD RIVER AP   LGT RAIN    48  45  89  NE5     30.25S
THE DALLES AP   LGT RAIN    49  44  83  NE3     30.25F
#ARLINGTON AIRPON/A         46  42  86  CALM    30.26F
#ARLINGTON HS   N/A         48  42  80  N3      30.17F
#CELILO DOT     N/A         49  42  77  CALM    N/A
#LYLE           N/A         48  45  89  CALM    30.27F
#MARYHILL       N/A         48  42  80  CALM    N/A
#MARYHILL 2W    N/A         47  46  96  CALM    N/A
#MOSIER 1S      N/A         47  41  79  CALM    30.23F
#MURDOCK        N/A         49  46  89  E2      30.22F
#RUFUS DOT      N/A         49  43  80  E6      N/A

$$

ORZ510-112310-
NORTH CENTRAL OREGON

CITY            SKY/WX      TMP DP  RH  WIND    PRES   REMARKS
#CHENOWITH 1W   N/A         44  43  96  S7      N/A
#COW CYN RST AREN/A         49  41  74  W1      N/A
#DUFUR 9E       N/A         44  41  89  E10     30.27F
#GRASS VALLEY 1SN/A         44  42  93  E5      30.26F
#KENT DOT       N/A         44  39  82  N8      N/A
#MAUPIN SCHOOL  N/A         49  45  86  SW1     30.23F
#MORO SCHOOL    N/A         45  44  96  E2      30.22S
#SHANIKO 4NW    N/A         45  45  100 NW6     30.19F
#TYGH VALLEY 2NEN/A         49  46  89  CALM    30.24S
#WAPANITIA AIRPON/A         46  43  89  NE3     30.24F
#WASCO DOT      N/A         47  41  79  E2      N/A
#WASCO 5NE      N/A         44  41  89  CALM    30.25F
$$

ORZ511-112310-
CENTRAL OREGON

CITY            SKY/WX      TMP DP  RH  WIND    PRES   REMARKS
BEND AIRPORT    MOCLDY      55  36  49  E5      30.16F
MADRAS AIRPORT  CLOUDY      48  43  83  N5      30.20F
PRINEVILLE AP   CLOUDY      54  37  52  CALM    30.19F
REDMOND AIRPORT CLOUDY      55  39  55  NE5     30.17F
#ASHWOOD SCHOOL N/A         51  40  66  NW2     30.14S
#BEND 6E        N/A         54  33  45  CALM    30.12F
#BEND 1SW       N/A         54  37  52  N2      N/A
#BEND-KIM LN    N/A         56  39  53  NE1     30.14F
#LAKE BILLY CHINN/A         47  N/A N/A E5      30.23F
#MADRAS         N/A         48  44  86  N5      N/A
#POWELL BUTTE 3EN/A         52  37  56  E6      N/A
#PRINEVILLE 3N  N/A         53  42  66  NW3     30.18F
#WARM SPRINGS   N/A         50  44  80  N6      30.17F

$$


ORZ509-112310-
EAST SLOPES OF OREGON CASCADES

CITY            SKY/WX      TMP DP  RH  WIND    PRES   REMARKS
SISTERS AWOS    N/A         50  39  66  CALM    30.14F
#BLACK BUTTE RNCN/A         47  45  93  CALM    30.20F
#CAMP SHERMAN   N/A         47  42  83  CALM    30.29F
#LA PINE 4NW    N/A         53  35  50  CALM    30.22F
#LAVA BUTTE DOT N/A         54  27  35  S5      N/A
#SISTERS AIRPOR N/A         50  45  83  CALM    30.17S
#SISTERS ODOT   N/A         50  N/A N/A W1      N/A
#SISTERS 3N     N/A         50  39  66  CALM    30.18F
#SUNRIVER       N/A         54  35  48  CALM    30.22F
#SUTTLE LK DOT  N/A         40  40  100 SW17G28 N/A    WCI 31
#TUMALO 3W      N/A         50  39  66  N1      30.04F
#WANOGA BUTTE D N/A         47  28  47  CALM    N/A

$$

ORZ044-112310-
LOWER COLUMBIA BASIN...OREGON

CITY            SKY/WX      TMP DP  RH  WIND    PRES   REMARKS
HERMISTON       CLOUDY      52  40  63  CALM    30.25S
#BOARDMAN SCHOOLN/A         51  42  71  NW2     30.25F
#BOARDMAN 8SW   N/A         51  42  71  N2      30.26F
#I-84 EX 198 DOTN/A         48  39  71  E8      N/A
#IONE SCHOOL    N/A         49  31  50  E7      30.18F
#IRRIGON 4NW    N/A         53  43  69  E5      N/A
#UMATILLA SCHOOLN/A         53  46  77  CALM    30.25S
#UMATILLA       N/A         53  40  61  SE1     30.21S
$$

ORZ507-112310-
NORTHERN FOOTHILLS OF THE BLUES

CITY            SKY/WX      TMP DP  RH  WIND    PRES   REMARKS
PENDLETON AIRPT LGT RAIN    47  41  79  NW10    30.24R
#ADAMS 3WNW     N/A         48  42  80  N5      30.24R
#ATHENA         N/A         45  41  86  CALM    30.27S
#CAYUSE         N/A         48  42  80  W8      30.24R
#HELIX SCHOOL   N/A         45  41  86  N6      30.24S
#HELIX 3N       N/A         44  40  86  N8      30.19S
#HOLDMAN 5SE    N/A         46  41  83  CALM    30.22S
#HOLDMAN 6E     N/A         45  41  86  SE3     30.06R
#M-F GROVE ELEM N/A         47  38  71  CALM    30.22F
#M-FREEWATER 5SEN/A         46  40  79  NE2     30.22F
#PENDLETON DNTN N/A         51  38  61  W1      30.25S
#PDT AQUATIC CTRN/A         50  40  68  W6      30.25R
#PDT SUNRIDGE   N/A         48  42  80  W3      30.26R
#PENDLETON 7NW  N/A         49  41  74  CALM    32.08S
#PILOT ROCK     N/A         48  38  68  CALM    30.23R
#TUTUILLA       N/A         48  42  80  CALM    30.26R
#UMAPINE 2E     N/A         50  43  77  W1      30.22F
#WESTON SCHOOL  N/A         44  38  79  NE2     30.17S

$$

ORZ508-112310-
SOUTHERN FOOTHILLS OF THE BLUES

CITY            SKY/WX      TMP DP  RH  WIND    PRES   REMARKS
#CONDON SCHOOL  N/A         43  41  93  NE6     30.15F
#CONDON 5W      N/A         41  39  93  E3      30.16S
#FOSSIL SCHOOL  N/A         50  42  74  CALM    30.12F
#HEPPNER EOC    N/A         45  41  86  W3      30.17F
#HEPPNER 4NE    N/A         44  40  86  CALM    30.21F
#LEXINGTON 2SE  N/A         48  43  83  N3      30.19F
#MIKKALO        N/A         47  43  86  NE1     30.31F
#OLEX 4N        N/A         46  42  86  NE2     30.22F
#RUGGS 5NE      N/A         45  43  93  VRB2    30.36F
#RUGGS 2SW      N/A         43  39  86  VRB1    30.24F

$$

ORZ502-503-112310-
BLUE MOUNTAINS

CITY            SKY/WX      TMP DP  RH  WIND    PRES   REMARKS
MEACHAM         LGT RAIN    45  31  58  CALM    30.22
#BATTLE MTN DOT N/A         47  38  71  S2      N/A
#LADD CYN SMT   N/A         39  28  64  SE20    N/A    WCI 29
#LADD CREEK ODOTN/A         44  31  60  S10     N/A
#LONG CREEK HS  N/A         51  40  66  CALM    N/A
#N POWDER DOT   N/A         40  32  73  W6      N/A
#PIKES PEAK     N/A         46  36  68  CALM    27.99S
#TOLLGATE       N/A         42  32  67  CALM    30.06F
#TROY SCHOOL    N/A         52  39  61  W1      30.12F
#UKIAH          N/A         47  37  68  CALM    30.18S
#WESTON 4E      N/A         49  35  58  E7      30.19F
$$

ORZ505-112310-
JOHN DAY BASIN

CITY            SKY/WX      TMP DP  RH  WIND    PRES   REMARKS
JOHN DAY        MOCLDY      57  34  42  E8      30.19F
#DAYVILLE SCHOOLN/A         54  38  55  CALM    30.14F
#MITCHELL       N/A         50  43  77  CALM    30.34F
#MITCHELL 8NW   N/A         48  37  65  CALM    30.37F
#MONUMENT HS    N/A         54  36  50  CALM    30.09F
#MT. VERNON 5SE N/A         56  34  43  S1      30.14F
#WINLOCK        N/A         53  38  57  CALM    30.14F
$$

ORZ506-112310-
OCHOCO AND JOHN DAY HIGHLANDS

CITY            SKY/WX      TMP DP  RH  WIND    PRES   REMARKS
#HORSE RIDGE DO N/A         55  35  47  SE1     N/A
#KEYES SMT DOT  N/A         49  35  58  E8      N/A
#PAULINA SCHOOL N/A         50  38  63  CALM    30.15F
#PINE MTN OBS   N/A         49  33  54  S7      N/A
#PRAIRIE CITY   N/A         56  35  45  CALM    30.16F
#SENECA         N/A         42  N/A N/A CALM    N/A
#SENECA 9NW     N/A         47  32  56  CALM    30.25F
$$

ORZ049-112310-
GRANDE RONDE VALLEY

CITY            SKY/WX      TMP DP  RH  WIND    PRES   REMARKS
LA GRANDE       MOCLDY      46  30  53  S15G32  30.25F WCI 40
#COVE           N/A         47  39  74  NW1     30.27F
#COVE SCHOOL    N/A         47  37  68  CALM    30.26F
#COVE 6NW       N/A         39  31  73  S8      30.26S
#ELGIN 3N       N/A         47  32  56  S6      30.22F
#ELGIN 1E       N/A         48  36  63  CALM    N/A
#IMBLER SCHOOL  N/A         45  34  65  SE5     30.21F
#ISLAND CITY 4N N/A         54  53  96  CALM    30.13F
#LADD CYN DOT   N/A         44  33  65  SE22    N/A    WCI 35
#UNION 1S       N/A         44  36  73  S9      30.25F
$$

ORZ050-112310-
WALLOWA COUNTY

CITY            SKY/WX      TMP DP  RH  WIND    PRES   REMARKS
#ENTERPRISE AP  N/A         35  32  89  CALM    30.16F
#ENTERPRISE HS  N/A         40  34  79  W1      30.23F
#IMNAHA SCHOOL  N/A         53  36  52  N8      30.21F
#IMNAHA 10S     N/A         51  35  54  NE3     30.20F
#JOSEPH 3N      N/A         38  32  79  W1      30.25S
#JOSEPH 3W      N/A         38  29  70  CALM    30.06S
#LOSTINE        N/A         40  33  76  CALM    30.17F
#MT HOWARD 8000 N/A         45  29  53  SW2     30.29F
#PROMISE 1S     N/A         43  33  67  E3      30.40F
#WALLOWA SCHOOL N/A         40  33  76  CALM    30.22F



$$



USA.gov is the U.S. government's official web portal to all federal, state and local government web resources and services.